This demonstration page uses our WeatherBlox Daily Observations layout. Learn more.

Left ArrowRight Arrow

44.89941, -97.11507

Hourly Observations for January 7, 2016

Temp ( °F °C ) Dew Point ( °F °C ) Humidity (%) Winds ( mph kmh ) Pressure ( in mb ) Visibility ( mi km ) Precip ( " mm )
12:53 am 00:53 Cloudy with Mist and Fog 32 0 31 -0.6 96 96 SE 5 7 29.93 1013 1 2 0.00 0.00
1:27 am 01:27 Cloudy with Mist and Fog 32 0 31 -0.6 96 96 SSE 6 9 29.97 1015 2 2 0.00 0.00
1:53 am 01:53 Cloudy with Mist and Fog 32 0 31 -0.6 96 96 SSE 3 6 29.92 1013 2 2 0.00 0.00
2:16 am 02:16 Cloudy with Mist and Fog 32 0 30 -1.1 92 92 SSE 5 7 29.97 1015 1 2 0.00 0.00
2:53 am 02:53 Cloudy with Mist and Fog 32 0 31 -0.6 96 96 S 8 13 29.93 1014 1 2 0.00 0.00
3:05 am 03:05 Cloudy with Fog 32 0 31 -0.6 96 96 SSE 7 11 29.97 1015 1 1 0.00 0.00
3:33 am 03:33 Mostly Cloudy with Fog 32 0 31 -0.6 96 96 SSE 6 9 29.97 1015 0 0 0.00 0.00
3:53 am 03:53 Mostly Cloudy with Fog 32 0 31 -0.6 96 96 SSE 6 9 29.92 1013 0 0 0.00 0.00
4:53 am 04:53 Mostly Cloudy with Fog 32 0 30 -1.1 92 92 SE 3 6 29.91 1013 0 0 0.00 0.00
5:53 am 05:53 Mostly Cloudy with Fog 32 0 31 -0.6 96 96 Calm 29.91 1013 0 0 0.00 0.00
6:15 am 06:15 Mostly Cloudy with Fog 32 0 31 -0.6 96 96 Calm 29.94 1014 1 1 0.00 0.00
6:40 am 06:40 Mostly Cloudy with Fog 32 0 30 -1.1 92 92 Calm 29.94 1014 0 0 0.00 0.00
6:53 am 06:53 Mostly Cloudy with Fog 32 0 30 -1.1 92 92 SSE 3 6 29.92 1013 1 1 0.00 0.00
7:42 am 07:42 Mostly Cloudy with Fog 32 0 30 -1.1 92 92 SE 5 7 29.97 1015 0 0 0.00 0.00
7:53 am 07:53 Mostly Cloudy with Fog 32 0 30 -1.1 92 92 SE 3 6 29.92 1013 1 1 0.00 0.00
8:16 am 08:16 Cloudy with Mist and Fog 32 0 30 -1.1 92 92 Calm 29.97 1015 1 2 0.00 0.00
8:25 am 08:25 Cloudy with Mist and Fog 32 0 30 -1.1 92 92 SE 3 6 29.97 1015 1 1 0.00 0.00
8:34 am 08:34 Cloudy with Mist and Fog 32 0 29 -1.7 88 88 SSE 5 7 29.97 1015 2 2 0.00 0.00
8:53 am 08:53 Cloudy with Mist and Fog 32 0 30 -1.1 92 92 SSE 5 7 29.93 1014 2 2 0.00 0.00
9:05 am 09:05 Cloudy with Mist and Fog 32 0 30 -1.1 92 92 SSE 5 7 29.97 1015 2 3 0.00 0.00
9:53 am 09:53 Cloudy with Mist and Fog 32 0 30 -1.1 92 92 SSE 7 11 29.95 1014 2 3 0.00 0.00
10:53 am 10:53 Cloudy with Mist and Fog 32 0 30 -1.1 92 92 SSE 3 6 29.94 1014 3 4 0.00 0.00
11:53 am 11:53 Cloudy with Mist and Fog 32 0 31 -0.6 96 96 SSE 5 7 29.93 1014 2 3 0.00 0.00
12:37 pm 12:37 Cloudy with Mist and Fog 32 0 30 -1.1 92 92 Calm 29.94 1014 3 5 0.00 0.00
12:53 pm 12:53 Cloudy with Mist and Fog 33 0.6 31 -0.6 92 92 Calm 29.90 1012 3 4 0.00 0.00
1:12 pm 13:12 Cloudy with Light Snow 33 0.6 31 -0.6 92 92 Calm 29.91 1013 2 2 0.00 0.03
1:24 pm 13:24 Cloudy with Light Snow 33 0.6 31 -0.6 92 92 Calm 29.91 1013 1 2 0.00 0.03
1:37 pm 13:37 Cloudy with Light Snow 33 0.6 31 -0.6 92 92 Calm 29.91 1013 2 3 0.00 0.03
1:45 pm 13:45 Cloudy with Light Snow 33 0.6 31 -0.6 92 92 Calm 29.91 1013 1 2 0.00 0.03
1:53 pm 13:53 Cloudy with Light Snow 33 0.6 31 -0.6 92 92 Calm 29.88 1012 1 2 0.00 0.03
2:10 pm 14:10 Cloudy with Light Snow 33 0.6 31 -0.6 92 92 Calm 29.91 1013 1 2 0.00 0.03
2:19 pm 14:19 Cloudy with Light Snow 33 0.6 31 -0.6 92 92 Calm 29.91 1013 2 3 0.00 0.03
2:37 pm 14:37 Cloudy with Mist and Fog 33 0.6 31 -0.6 92 92 Calm 29.91 1013 3 4 0.00 0.03
2:53 pm 14:53 Cloudy with Mist and Fog 33 0.6 30 -1.1 89 89 Calm 29.88 1012 3 4 0.00 0.03
3:25 pm 15:25 Cloudy with Mist and Fog 33 0.6 31 -0.6 92 92 Calm 29.91 1013 3 4 0.00 0.00
3:32 pm 15:32 Cloudy with Mist and Fog 33 0.6 31 -0.6 92 92 Calm 29.91 1013 3 5 0.00 0.00
3:53 pm 15:53 Cloudy with Mist and Fog 33 0.6 30 -1.1 89 89 Calm 29.89 1012 3 5 0.00 0.00
4:19 pm 16:19 Cloudy with Light Snow 33 0.6 31 -0.6 92 92 Calm 29.91 1013 2 3 0.00 0.03
4:26 pm 16:26 Cloudy with Light Snow 33 0.6 31 -0.6 92 92 Calm 29.91 1013 2 3 0.00 0.03
4:38 pm 16:38 Cloudy with Light Snow 33 0.6 31 -0.6 92 92 Calm 29.94 1014 1 2 0.00 0.03
4:53 pm 16:53 Cloudy with Light Snow 33 0.6 31 -0.6 92 92 Calm 29.90 1013 1 2 0.00 0.03
4:56 pm 16:56 Cloudy with Light Snow 33 0.6 31 -0.6 92 92 Calm 29.94 1014 2 2 0.00 0.03
5:07 pm 17:07 Cloudy with Light Snow 33 0.6 31 -0.6 92 92 Calm 29.94 1014 3 4 0.00 0.03
5:14 pm 17:14 Cloudy with Mist and Fog 33 0.6 31 -0.6 92 92 NNE 3 6 29.94 1014 4 6 0.00 0.03
5:22 pm 17:22 Cloudy with Mist and Fog 33 0.6 31 -0.6 92 92 NNE 3 6 29.94 1014 4 6 0.00 0.03
5:49 pm 17:49 Cloudy with Mist and Fog 34 1 30 -1 87 87 ENE 6 9 29.94 1014 4 6 0.00 0.03
5:53 pm 17:53 Cloudy with Mist and Fog 33 0.6 30 -1.1 89 89 ENE 6 9 29.90 1013 3 5 0.00 0.03
6:03 pm 18:03 Cloudy with Mist and Fog 33 0.6 30 -1.1 89 89 NE 7 11 29.91 1013 3 4 0.00 0.00
6:31 pm 18:31 Cloudy with Mist and Fog 32 0 30 -1.1 92 92 NE 8 13 29.91 1013 2 3 0.00 0.00
6:53 pm 18:53 Cloudy with Mist and Fog 32 0 30 -1.1 92 92 ENE 5 7 29.90 1013 2 3 0.00 0.00
7:06 pm 19:06 Cloudy with Mist and Fog 32 0 30 -1.1 92 92 ENE 6 9 29.91 1013 3 5 0.00 0.00
7:53 pm 19:53 Cloudy with Mist and Fog 32 0 29 -1.7 88 88 ENE 5 7 29.91 1013 3 5 0.00 0.00
8:06 pm 20:06 Cloudy with Mist and Fog 32 0 29 -1.7 88 88 NE 7 11 29.91 1013 3 4 0.00 0.00
8:37 pm 20:37 Cloudy with Mist and Fog 32 0 29 -1.7 88 88 NE 6 9 29.94 1014 3 5 0.00 0.00
8:53 pm 20:53 Cloudy with Mist and Fog 32 0 29 -1.7 88 88 NNE 7 11 29.90 1013 3 5 0.00 0.00
9:09 pm 21:09 Cloudy with Mist and Fog 32 0 29 -1.7 88 88 NE 7 11 29.91 1013 2 3 0.00 0.00
9:19 pm 21:19 Cloudy with Mist and Fog 32 0 29 -1.7 88 88 NE 6 9 29.91 1013 2 2 0.00 0.00
9:28 pm 21:28 Cloudy with Mist and Fog 32 0 30 -1.1 92 92 ENE 5 7 29.94 1014 1 2 0.00 0.00
9:44 pm 21:44 Cloudy with Mist and Fog 32 0 29 -1.7 88 88 NE 7 11 29.91 1013 1 1 0.00 0.00
9:53 pm 21:53 Cloudy with Mist and Fog 32 0 30 -1.1 92 92 NE 6 9 29.90 1013 1 1 0.00 0.00
10:53 pm 22:53 Mostly Cloudy with Fog 32 0 30 -1.1 92 92 NE 8 13 29.89 1012 1 1 0.00 0.00
11:28 pm 23:28 Mostly Cloudy with Freezing Fog 31 -0.6 29 -1.7 92 92 NE 8 13 29.91 1013 0 0 0.00 0.00
11:53 pm 23:53 Mostly Cloudy with Freezing Fog 31 -0.6 29 -1.7 92 92 NNE 9 15 29.89 1012 0 0 0.00 0.00

Powered by AerisWeather